National Weather Service United States Department of Commerce

Latest Hourly Weather Roundup

TOPSWRTT 000
TTAA00 KICT 270112

Wichita AWIPS Roundup
National Weather Service Wichita KS
800 PM CDT SUN SEP 26 2021

....Central Kansas....
  
CITY           SKY/WX    TMP DP  RH WIND       PRES   REMARKS
RUSSELL        CLEAR     81  37  20 S12       29.77R                  
SALINA         CLEAR     82  42  24 S13       29.78R HX  80           
GREAT BEND     CLEAR     82  40  22 S16       29.82S HX  80           
ELLSWORTH      CLEAR     84  32  15 S13       29.78R HX  81           
LYONS          FAIR      80  41  25 S13       29.82R                  
MCPHERSON      CLEAR     81  45  28 S13       29.82R                  
HAYS           CLEAR     81  37  20 S14       29.78R                  

....South Central Kansas....
  
CITY           SKY/WX    TMP DP  RH WIND       PRES   REMARKS
HUTCHINSON     CLEAR     85  40  20 S15       29.83S HX  82           
NEWTON         CLEAR     79  45  29 S13       29.86R                  
KINGMAN        CLEAR     79  39  24 S9        29.86S                  
WICHITA (ICT)  PTCLDY    81  45  28 S12       29.86R HX  80           
JABARA ARPT    CLEAR     83  43  24 S17       29.86R HX  81           
BEECH ARPT     CLEAR     82  42  24 S14       29.87R HX  80           
MCCONNELL AFB  CLEAR     80  42  25 SW14      29.87R                  
BENTON         FAIR      82  44  25 S14G21    29.86S HX  80           
EL DORADO      FAIR      79  48  34 S10       29.87R                  
AUGUSTA        CLEAR     79  37  22 S9        29.87R                  
WELLINGTON     NOT AVBL                                               
WINFIELD       CLEAR    N/A N/A N/A S10       29.89R                  
 
....Southeast Kansas....
  
CITY           SKY/WX    TMP DP  RH WIND       PRES   REMARKS
EUREKA         CLEAR     77  51  40 S12       29.88R                  
IOLA           FAIR      75  50  41 S6        29.90R                  
CHANUTE        CLEAR     79  50  36 S9        29.88R                  
PARSONS        CLEAR     80  50  34 S6        29.90S HX  80           
COFFEYVILLE    CLEAR     80  51  36 S8        29.89R HX  80           
INDEPENDENCE   CLEAR     77  49  37 S8        29.90R                  
FORT SCOTT     CLEAR     77  48  36 S9        29.89R                  
PITTSBURG      CLEAR     77  57  49 MISG      29.90S                  

....Western Kansas....
  
CITY           SKY/WX    TMP DP  RH WIND       PRES   REMARKS
GOODLAND       CLEAR     78  28  16 CALM      29.86R                  
HILL CITY      CLEAR     83  42  23 SW7       29.76R HX  81           
LIBERAL        MOCLDY    78  41  26 S12       29.90R                  
GARDEN CITY    PTCLDY    81  41  24 S16       29.86R                  
DODGE CITY     PTCLDY    77  39  25 S9        29.86R                  
PRATT          CLEAR     80  34  18 S12       29.87R                  
MEDICINE LODGE   N/A     83  40  21 S10       29.86R HX  81           

....Northeast Kansas....
  
CITY           SKY/WX    TMP DP  RH WIND       PRES   REMARKS
CONCORDIA      CLEAR     85  42  22 S14       29.75R HX  82           
TOPEKA         CLEAR     81  52  36 S7        29.80R HX  80           
MANHATTAN      CLEAR     80  46  30 SW7       29.78R                  
LAWRENCE       CLEAR     81  54  39 S8        29.81S HX  81           
OLATHE         CLEAR     78  54  43 S9        29.84S                  
EMPORIA        CLEAR     78  52  40 S12       29.85R                  

....Oklahoma....
  
CITY           SKY/WX    TMP DP  RH WIND       PRES   REMARKS
GAGE           MOCLDY    77  40  26 S10       29.91R                  
PONCA CITY     CLEAR     84  48  28 S7        29.89R HX  82           
BARTLESVILLE   CLEAR     81  48  31 S7        29.91R HX  80           
TULSA          PTCLDY    86  49  27 S13       29.92R HX  83           
OKLAHOMA CITY  MOCLDY    74  45  35 S9        29.94S                  

Note: "fair" indicates few or no clouds below 12,000 feet with no
significant weather and/or obstructions to visibility.